Total_Precipitation_Accumulation
0.26 0.25 0.38 0.27 0.21 0.21 0.23 0.26 0.28 0.30 0.29 0.29 0.29 0.31 0.30 0.29 0.30 0.33 0.42 0.57 0.56 0.58 0.58 0.63 0.73 0.74 0.68 0.66 0.66 0.61 0.55 0.53 0.57 0.60 0.61 0.69 0.77 0.96 1.16 1.08 1.09 0.77 0.69
0.15 0.17 0.32 0.26 0.19 0.20 0.22 0.26 0.26 0.26 0.27 0.28 0.30 0.32 0.34 0.37 0.39 0.41 0.48 0.63 0.60 0.58 0.55 0.62 0.66 0.63 0.61 0.54 0.51 0.47 0.45 0.50 0.56 0.66 0.63 0.61 0.79 1.03 1.17 1.11 1.21 0.70 0.61
0.11 0.14 0.22 0.28 0.22 0.20 0.21 0.26 0.28 0.28 0.26 0.26 0.27 0.31 0.37 0.48 0.57 0.54 0.56 0.68 0.73 0.67 0.62 0.64 0.56 0.50 0.50 0.42 0.40 0.39 0.42 0.53 0.62 0.81 0.89 0.70 0.61 1.05 1.18 1.10 0.83 0.53 0.55
0.10 0.14 0.17 0.23 0.24 0.21 0.21 0.25 0.28 0.29 0.27 0.29 0.33 0.35 0.40 0.44 0.48 0.49 0.55 0.66 0.72 0.66 0.62 0.48 0.42 0.38 0.36 0.29 0.31 0.35 0.43 0.57 0.76 1.07 1.26 0.98 0.57 0.86 1.04 0.91 0.69 0.54 0.53
0.15 0.12 0.21 0.27 0.29 0.28 0.22 0.24 0.27 0.31 0.31 0.32 0.35 0.39 0.41 0.42 0.45 0.44 0.48 0.58 0.57 0.50 0.43 0.37 0.37 0.32 0.28 0.23 0.25 0.34 0.44 0.60 0.78 1.13 1.11 1.07 0.96 0.88 0.87 0.83 0.73 0.69 0.62
0.21 0.18 0.24 0.32 0.32 0.33 0.27 0.26 0.30 0.33 0.34 0.32 0.34 0.38 0.40 0.43 0.44 0.42 0.43 0.49 0.47 0.43 0.37 0.37 0.38 0.33 0.28 0.24 0.25 0.30 0.40 0.61 0.78 0.75 0.79 0.90 0.85 0.82 0.81 0.88 0.89 0.81 0.70
0.42 0.36 0.35 0.41 0.42 0.40 0.33 0.29 0.30 0.32 0.36 0.35 0.35 0.37 0.37 0.40 0.41 0.40 0.40 0.39 0.37 0.38 0.36 0.37 0.38 0.32 0.35 0.35 0.31 0.33 0.44 0.66 0.73 0.67 0.71 1.01 0.88 0.67 0.83 1.01 1.13 0.99 0.78
0.57 0.56 0.49 0.50 0.50 0.50 0.41 0.37 0.38 0.37 0.36 0.36 0.37 0.34 0.34 0.34 0.37 0.38 0.37 0.33 0.29 0.28 0.31 0.37 0.41 0.37 0.37 0.42 0.37 0.34 0.44 0.59 0.55 0.61 0.60 0.73 0.62 0.63 0.84 1.06 1.16 1.08 0.92
0.70 0.68 0.61 0.57 0.52 0.56 0.52 0.46 0.46 0.46 0.43 0.41 0.40 0.35 0.32 0.32 0.34 0.35 0.36 0.33 0.30 0.29 0.30 0.34 0.37 0.35 0.35 0.39 0.42 0.42 0.49 0.65 0.69 0.73 0.61 0.71 0.63 0.76 0.97 1.14 1.21 1.17 1.10
1.07 0.85 0.73 0.73 0.72 0.67 0.64 0.55 0.54 0.49 0.49 0.49 0.44 0.41 0.40 0.44 0.43 0.42 0.40 0.38 0.38 0.38 0.35 0.34 0.38 0.36 0.38 0.36 0.40 0.53 0.69 0.66 0.57 0.68 0.80 0.67 0.67 0.96 1.24 1.28 1.35 1.36 1.31
1.42 1.19 0.98 0.89 0.87 0.81 0.73 0.66 0.71 0.68 0.65 0.64 0.61 0.58 0.57 0.69 0.69 0.63 0.56 0.60 0.59 0.59 0.61 0.59 0.62 0.58 0.55 0.45 0.51 0.72 0.77 0.62 0.72 0.92 0.97 0.73 0.87 1.21 1.49 1.51 1.50 1.51 1.51
1.55 1.27 1.19 1.11 0.99 0.91 0.78 0.84 1.06 0.96 0.88 0.90 0.95 0.88 0.95 1.06 1.04 0.75 0.78 0.98 1.10 1.16 1.13 1.19 1.31 1.05 0.85 0.86 1.31 1.37 0.75 0.70 0.93 1.05 1.05 0.92 1.16 1.55 1.72 1.80 1.76 1.65 1.60
1.85 1.53 1.42 1.33 1.23 1.23 1.31 1.16 1.21 1.21 1.23 1.23 1.24 1.25 1.28 1.14 1.03 0.99 1.12 1.36 1.55 1.60 1.57 1.85 1.89 1.41 1.46 1.76 1.85 1.60 1.03 0.98 1.18 1.20 1.35 1.36 1.42 1.84 2.25 2.26 2.19 1.98 1.80
2.21 1.88 1.68 1.58 1.58 1.62 1.57 1.50 1.36 1.37 1.38 1.44 1.51 1.48 1.58 1.66 1.58 1.58 1.66 1.71 1.89 2.02 2.27 2.35 2.46 2.13 2.08 1.93 1.77 1.67 1.51 1.62 1.55 1.74 2.10 1.91 1.66 1.92 2.58 2.72 2.62 2.40 2.00
2.41 2.09 2.04 1.80 1.71 1.76 1.85 1.90 1.71 1.80 1.74 1.72 1.80 1.88 1.93 2.13 2.13 2.11 2.00 2.02 1.95 2.15 2.38 2.70 2.61 2.84 2.76 2.42 2.03 1.86 1.88 1.95 1.86 2.05 2.31 2.33 2.17 2.19 2.86 3.25 3.15 2.86 2.44
2.38 2.18 2.13 2.00 2.04 2.14 2.11 2.13 2.19 2.21 2.20 2.12 2.06 2.09 2.14 2.35 2.57 2.52 2.30 2.28 2.17 2.23 2.55 2.78 2.80 3.23 3.06 2.89 2.41 2.22 2.07 2.04 2.01 2.18 2.42 2.57 2.48 2.45 2.81 3.24 3.47 3.37 2.98
2.16 2.24 2.37 2.48 2.67 2.78 2.75 2.69 2.61 2.64 2.56 2.55 2.68 2.66 2.68 2.67 2.71 2.60 2.48 2.37 2.47 2.57 2.73 2.77 2.88 3.23 3.00 2.91 2.75 2.53 2.33 2.17 2.06 2.21 2.54 2.84 2.57 2.46 2.77 3.16 3.52 3.44 3.26
2.20 2.29 2.50 2.60 2.95 3.15 3.17 3.23 3.15 3.08 2.95 3.01 3.02 3.00 2.97 2.88 2.76 2.83 2.61 2.41 2.61 2.73 2.89 3.06 3.02 3.10 3.15 3.13 3.01 2.68 2.52 2.41 2.12 2.19 2.34 2.52 2.69 2.27 2.63 3.16 3.34 3.16 3.16
2.54 2.76 3.05 3.14 3.07 3.16 3.35 3.47 3.27 3.18 3.06 2.99 2.90 2.91 2.79 2.68 2.67 2.95 2.78 2.74 2.82 3.01 2.91 2.71 3.10 3.22 3.19 3.16 2.85 2.73 2.39 2.30 2.20 2.09 2.18 2.28 2.47 2.44 2.48 2.58 2.99 2.88 3.10
2.85 3.16 3.27 3.34 3.55 3.84 4.01 3.90 3.66 3.27 2.98 2.86 2.76 2.64 2.57 2.60 2.62 2.89 2.70 2.72 2.89 3.13 3.19 3.18 3.31 3.25 3.11 3.16 2.76 2.59 2.28 2.00 1.96 1.92 1.82 2.03 2.09 1.89 2.03 2.23 2.56 2.22 2.45
2.82 2.98 3.20 3.57 3.96 4.08 3.94 3.86 3.77 3.44 3.15 2.82 2.53 2.47 2.54 2.47 2.54 2.81 2.58 2.89 2.98 3.07 3.19 3.21 3.37 3.26 3.07 3.20 3.08 2.62 2.13 1.83 1.70 1.57 1.63 1.76 1.71 1.79 2.05 2.38 2.63 2.63 2.33
2.61 2.86 3.22 3.53 3.87 3.84 3.95 4.10 4.02 3.78 3.20 2.83 2.64 2.53 2.48 2.47 2.45 2.56 2.89 2.92 3.00 3.11 3.11 3.04 3.09 2.93 2.70 3.03 3.09 2.90 2.32 1.96 1.61 1.35 1.55 1.55 1.67 1.92 1.97 1.99 2.30 2.63 2.52
2.70 3.08 3.31 3.53 3.65 3.72 3.87 3.96 3.65 3.44 2.99 2.83 2.82 2.64 2.49 2.54 2.56 2.66 2.85 2.92 2.87 2.78 2.84 2.92 2.84 2.72 2.56 2.68 2.89 2.92 2.48 2.04 1.68 1.42 1.37 1.41 1.74 1.92 1.89 1.88 1.87 2.01 2.08
2.67 3.12 3.52 3.53 3.50 3.44 3.58 3.67 3.45 3.09 2.81 2.69 2.70 2.49 2.34 2.29 2.30 2.40 2.47 2.61 2.69 2.65 2.67 2.59 2.57 2.60 2.55 2.44 2.62 2.65 2.51 2.32 2.09 1.64 1.32 1.32 1.55 1.68 1.65 1.55 1.64 1.88 1.98
2.35 2.71 3.09 3.36 3.39 3.25 3.22 3.25 3.28 3.05 2.72 2.54 2.47 2.36 2.29 2.29 2.12 2.08 2.18 2.36 2.40 2.32 2.31 2.44 2.64 2.60 2.45 2.32 2.43 2.50 2.64 2.57 2.30 1.99 1.57 1.41 1.38 1.29 1.39 1.44 1.49 1.58 1.77
2.18 2.46 2.68 2.88 2.93 2.89 2.80 2.81 2.86 2.80 2.69 2.46 2.29 2.29 2.31 2.22 2.03 1.93 1.94 2.04 2.09 2.09 2.06 2.09 2.21 2.27 2.27 2.36 2.39 2.38 2.51 2.51 2.41 2.28 1.89 1.63 1.47 1.16 1.20 1.28 1.40 1.46 1.54